Location: Newark
(36.5100°N, 98.4486°W)
Time: 06:33:41
(UTC+00:00)

ISS - Visible Passes

Search period start: 13 November 2019 00:00
Search period end: 23 November 2019 00:00
Orbit: 412 x 421 km, 51.6° (Epoch: 13 November)

Date Brightness Start Highest point End Pass type
(mag) Time Alt. Az. Time Alt. Az. Time Alt. Az.
13 Nov -1.8 11:00:17 29° E 11:00:17 29° E 11:02:15 10° ESE visible
13 Nov -1.7 12:33:24 10° W 12:35:28 15° SW 12:37:31 10° SSW visible
14 Nov -2.6 11:47:19 28° SW 11:47:19 28° SW 11:50:09 10° SSE visible
15 Nov -1.1 11:01:30 15° SSE 11:01:30 15° SSE 11:02:13 10° SSE visible
19 Nov -1.5 01:11:31 10° SSW 01:12:33 17° S 01:12:33 17° S visible
20 Nov -1.8 00:24:05 10° SSE 00:26:08 15° SE 00:26:36 15° ESE visible
20 Nov -0.3 01:59:21 10° WSW 01:59:32 11° WSW 01:59:32 11° WSW visible
21 Nov -3.2 01:10:45 10° SW 01:13:29 57° WSW 01:13:29 57° WSW visible
22 Nov -3.4 00:22:26 10° SSW 00:25:40 49° SE 00:27:19 24° ENE visible
22 Nov -0.3 02:00:04 10° WNW 02:00:15 11° WNW 02:00:15 11° WNW visible
